sat.trackr.live / text

‹ back to catalog

STARLINK-32878

NORAD 62892 · 2025-024P

PAYLOAD ACTIVE UNKNOWN

§ Identity

Operator
Country
US
Launch date
2025-02-04
Launch site
AFETR
Launch vehicle
Mass (kg)
RCS (m²)

Purposes: comms

External: N2YO · Heavens-Above · Gunter

§ Orbital elements

Epoch: 2026-05-24T23:46:14.896416Z

Period
94.27 min
Inclination
42.9967°
Eccentricity
0.0002871
Mean motion
15.27599263 rev/d
Perigee alt
481.0 km
Apogee alt
485.0 km
Semi-major
6,861.1 km
B*
8.8409e-4
RAAN
254.5909°
Arg perigee
261.2125°
Mean anomaly
98.8402°
Rev number
7,393

§ Raw data

STARLINK-328781 62892U 25024P   26144.99045019  .00024162  00000+0  88409-3 0  99902 62892  42.9967 254.5909 0002871 261.2125  98.8402 15.27599263 73939

JSON: /api/v1/satellites/62892 · /tle

For live sub-satellite position, see the globe view (requires WebGL).

§ Visibility from observer

Set your observer location to see the next 7 days of passes ≥ 10°. The values pass through the URL so the page stays shareable.

No JS? Fill the form by hand. The geolocation button needs JavaScript.